Location: Hermaringen
(48.5952°N, 10.2585°E)
Time: 21:59:42
(UTC+00:00)

Tiros 1 - All Passes

Search period start: 17 February 2026 00:00
Search period end: 27 February 2026 00:00
Orbit: 618 x 649 km, 48.4° (Epoch: 17 February)

Date Brightness Start Highest point End Pass type
(mag) Time Alt. Az. Time Alt. Az. Time Alt. Az.
17 Feb - 08:03:18 10° SSW 08:07:15 29° SSE 08:11:11 10° E daylight
17 Feb - 09:44:10 10° WSW 09:48:45 73° SSE 09:53:17 10° E daylight
17 Feb - 11:26:03 10° W 11:30:38 87° S 11:35:12 10° E daylight
17 Feb - 13:07:59 10° W 13:12:22 47° SSW 13:16:44 10° SE daylight
17 Feb - 14:51:03 10° WSW 14:53:28 14° SW 14:55:53 10° S daylight
18 Feb - 06:45:15 10° SSE 06:47:34 14° SE 06:49:53 10° ESE daylight
18 Feb - 08:24:17 10° SW 08:28:40 46° SSE 08:33:03 10° E daylight
18 Feb - 10:05:48 10° W 10:10:23 86° S 10:14:59 10° E daylight
18 Feb - 11:47:43 10° W 11:52:17 74° SSW 11:56:50 10° ESE daylight
18 Feb - 13:29:50 10° W 13:33:47 30° SSW 13:37:44 10° SSE daylight
19 Feb - 07:05:04 10° SSW 07:08:48 25° SE 07:12:31 10° E daylight
19 Feb - 08:45:39 10° WSW 08:50:12 67° SSE 08:54:45 10° E daylight
19 Feb - 10:27:28 10° W 10:32:05 89° S 10:36:39 10° E daylight
19 Feb - 12:09:25 10° W 12:13:51 53° SSW 12:18:17 10° SE daylight
19 Feb - 13:52:06 10° W 13:55:04 17° SW 13:58:01 10° S daylight
20 Feb - 05:47:46 10° SSE 05:49:10 11° SE 05:50:34 10° ESE visible
20 Feb - 07:25:52 10° SW 07:30:11 40° SSE 07:34:28 10° E daylight
20 Feb - 09:07:13 10° WSW 09:11:50 83° S 09:16:25 10° E daylight
20 Feb - 10:49:09 10° W 10:53:44 79° SSW 10:58:17 10° ESE daylight
20 Feb - 12:31:11 10° W 12:35:19 34° SSW 12:39:26 10° SE daylight
21 Feb - 06:06:53 10° S 06:10:21 21° SE 06:13:47 10° E daylight
21 Feb - 07:47:07 10° WSW 07:51:40 60° SSE 07:56:11 10° E daylight
21 Feb - 09:28:54 10° W 09:33:31 89° S 09:38:05 10° E daylight
21 Feb - 11:10:50 10° W 11:15:20 60° SSW 11:19:49 10° ESE daylight
21 Feb - 12:53:16 10° W 12:56:38 20° SW 12:59:59 10° S daylight
22 Feb - 06:27:28 10° SW 06:31:40 35° SSE 06:35:52 10° E daylight
22 Feb - 08:08:39 10° WSW 08:13:16 79° SSE 08:17:51 10° E daylight
22 Feb - 09:50:34 10° W 09:55:11 83° S 09:59:45 10° ESE daylight
22 Feb - 11:32:33 10° W 11:36:49 39° SSW 11:41:04 10° SE daylight
22 Feb - 13:16:40 10° WSW 13:17:48 11° SW 13:18:55 10° SSW daylight
23 Feb - 05:08:48 10° S 05:11:54 18° SE 05:14:59 10° E visible
23 Feb - 06:48:37 10° SW 06:53:08 54° SSE 06:57:37 10° E daylight
23 Feb - 08:30:18 10° W 08:34:55 89° S 08:39:31 10° E daylight
23 Feb - 10:12:14 10° W 10:16:48 66° SSW 10:21:19 10° ESE daylight
23 Feb - 11:54:30 10° W 11:58:11 24° SW 12:01:50 10° SSE daylight
24 Feb - 05:29:08 10° SSW 05:33:11 30° SSE 05:37:13 10° E visible
24 Feb - 07:10:05 10° WSW 07:14:42 74° SSE 07:19:17 10° E daylight
24 Feb - 08:51:59 10° W 08:56:36 86° S 09:01:11 10° E daylight
24 Feb - 10:33:56 10° W 10:38:19 45° SSW 10:42:39 10° SE daylight
24 Feb - 12:17:11 10° WSW 12:19:23 13° SW 12:21:36 10° SSW daylight
25 Feb - 04:10:51 10° S 04:13:27 15° SE 04:16:03 10° ESE visible
25 Feb - 05:50:08 10° SW 05:54:36 48° SSE 05:59:02 10° E daylight
25 Feb - 07:31:43 10° W 07:36:20 87° S 07:40:56 10° E daylight
25 Feb - 09:13:39 10° W 09:18:14 72° SSW 09:22:47 10° ESE daylight
25 Feb - 10:55:47 10° W 10:59:43 28° SW 11:03:36 10° SSE daylight
26 Feb - 04:30:50 10° SSW 04:34:41 26° SE 04:38:32 10° E visible
26 Feb - 06:11:31 10° WSW 06:16:08 69° SSE 06:20:42 10° E daylight
26 Feb - 07:53:22 10° W 07:58:00 88° SSW 08:02:36 10° E daylight
26 Feb - 09:35:19 10° W 09:39:47 52° SSW 09:44:13 10° SE daylight
26 Feb - 11:18:07 10° W 11:20:57 16° SW 11:23:47 10° S daylight
